www.pogodaiklimat.ru

ПОГОДА в Дюранте, OK

  • Прогноз погоды в Дюранте
  • Монитор погоды в Дюранте
  • Климат в Дюранте

АРХИВ ПОГОДЫ в Дюранте

Время (UTC), дата Ветер
(напр.,м/с)
 
Видим.   Явления Облачность Т
(С)
Тd
(С)
f
(%)
Тe
(С)
Тes
(С)
Комфортность

P
(гПа)

Po
(гПа)
Тmin
(С)
Tmax
(С)
R
(мм)
SD
(см)
04:35 24.03 Ю  16 км    8/8 1080 м  +16.0  +13.0  82  +15  +15      991.1         
04:55 24.03 Ю  16 км    5/5 1080 м  +16.0  +13.0  82  +15  +15      991.1         
05:15 24.03 Ю  7
{8} 
16 км    ясно  +16.0  +13.0  82  +14  +14      991.1         
05:35 24.03 Ю  6
{8} 
16 км    5/5 1800 м
[средняя] 
+16.0  +12.0  77  +15  +15      990.7         
05:55 24.03 Ю  6
{8} 
16 км    ясно  +16.0  +12.0  77  +15  +15      991.1         
06:15 24.03 Ю  16 км    ясно  +16.0  +12.0  77  +14  +14      990.7         
06:35 24.03 Ю  16 км    ясно  +16.0  +12.0  77  +15  +15      990.7         
06:55 24.03 Ю  16 км    ясно  +16.0  +12.0  77  +15  +15      990.7         
07:15 24.03 Ю  16 км    ясно  +15.0  +12.0  82  +14  +14      990.7         
07:35 24.03 Ю  16 км    ясно  +15.0  +12.0  82  +13  +13      990.4         
07:55 24.03 Ю  16 км    ясно  +15.0  +13.0  88  +13  +13      990.4         
08:15 24.03 Ю  16 км    ясно  +15.0  +13.0  88  +13  +13      990.4         
08:35 24.03 Ю  16 км    ясно  +15.0  +12.0  82  +14  +14      990.1         
08:55 24.03 Ю  16 км    ясно  +15.0  +13.0  88  +13  +13      990.1         
09:15 24.03 Ю  16 км    ясно  +14.0  +13.0  94  +12  +12      990.4         
09:35 24.03 Ю  16 км    ясно  +14.0  +12.0  88  +12  +12      990.4         
09:55 24.03 Ю  16 км    ясно  +14.0  +13.0  94  +12  +12      990.4         
10:15 24.03 Ю  16 км    ясно  +14.0  +13.0  94  +12  +12      990.4         
10:35 24.03 Ю  16 км    ясно  +14.0  +12.0  88  +12  +12      990.4         
10:55 24.03 Ю  16 км    5/5 360 м  +14.0  +12.0  88  +12  +12      990.4         
11:15 24.03 Ю  16 км    5/5 360 м  +14.0  +13.0  94  +12  +12      990.7         
11:35 24.03 Ю  16 км    5/5 360 м  +14.0  +13.0  94  +12  +12      990.7         
11:55 24.03 Ю  16 км    5/5 360 м  +15.0  +13.0  88  +14  +14      991.1         
12:15 24.03 ЮЗ  16 км    5/5 360 м  +15.0  +14.0  94  +14  +14      991.1         
12:35 24.03 ЮЗ  16 км    8/8 360 м  +16.0  +15.0  94  +14  +14      991.4         
12:55 24.03 ЮЗ  16 км    5/5 360 м  +17.0  +15.0  88  +16  +16      991.4         
13:15 24.03 ЮЗ  16 км    5/5 360 м  +17.0  +15.0  88  +16  +17      991.4         
13:35 24.03 ЮЗ  16 км    5/5 420 м  +18.0  +15.0  83  +17  +17      991.7         
13:55 24.03 ЮЗ  8
{10} 
16 км    5/5 420 м  +19.0  +15.0  78  +19  +20      991.7         
14:15 24.03 ЮЗ  16 км    5/5 540 м  +20.0  +15.0  73  +22  +22  комфорт    991.7         
14:35 24.03 ЮЗ  16 км    5/5 570 м  +20.0  +15.0  73  +22  +23  комфорт    991.7         
14:55 24.03 ЮЗ  6
{10} 
16 км    5/5 660 м  +21.0  +16.0  73  +24  +25  комфорт    991.7         
15:15 24.03 ЮЗ  7
{10} 
16 км    8/8 720 м  +22.0  +16.0  69  +26  +26  душно    992.0         
15:35 24.03 ЮЗ  16 км    10/10 720 м  +21.0  +15.0  69  +24  +24  комфорт    992.0         
15:55 24.03 ЮЗ  16 км    10/10 720 м  +21.0  +15.0  69  +24  +24  комфорт    991.7         
16:15 24.03 ЮЗ  16 км    10/10 720 м  +21.0  +15.0  69  +24  +24  комфорт    991.7         
16:35 24.03 ЮЗ  5
{7} 
16 км    10/10 720 м  +21.0  +16.0  73  +24  +24  комфорт    991.4         
16:55 24.03 ЮЗ  4
{8} 
16 км    10/10 720 м  +22.0  +15.0  64  +25  +25  комфорт    991.4         
17:15 24.03 ЮЗ  7
{8} 
16 км    10/10 780 м  +22.0  +16.0  69  +26  +26  душно    991.1         
17:35 24.03 ЮЗ  6
{8} 
16 км    8/8 870 м  +23.0  +15.0  61  +27  +28  душно    990.7         
17:55 24.03 ЮЗ  6
{8} 
16 км    8/8 990 м  +23.0  +15.0  61  +27  +28  душно    990.4         
18:15 24.03 ЮЗ  6
{8} 
16 км    8/8 990 м  +23.0  +15.0  61  +27  +28  душно    990.4         
18:35 24.03 ЮЗ  6
{8} 
16 км    5/5 1050 м  +23.0  +15.0  61  +27  +29  душно    990.4         
18:55 24.03 ЮЗ  16 км    5/5 1050 м  +24.0  +16.0  61  +27  +31  жарко    990.1         
19:15 24.03 ЮЗ  16 км    8/8 1140 м  +25.0  +16.0  57  +28  +30  жарко    989.7         
19:35 24.03 ЮЗ  16 км    5/5 1230 м  +25.0  +15.0  54  +28  +30  жарко    989.7         
19:55 24.03 Ю  4
{6} 
16 км    5/5 1230 м  +25.0  +15.0  54  +28  +32  жарко    989.4         
20:15 24.03 ЮЗ  16 км    8/8 1290 м  +25.0  +15.0  54  +28  +29  жарко    989.4         

 

Местоположение метеостанции Eaker Field Airport: широта 33.9422 долгота -96.3944 высота над уровнем моря 213 м.

В архиве по умолчанию представлена погода в Дюранте за последние 1-2 суток. Обновление информации о фактической погоде в базе происходит ежечасно! Архивные данные за месяц целиком и за предыдущие месяцы Вы можете получить, выбрав интересующий диапазон дат из раскрывающегося списка и нажав кнопку "Ввод!".

Внимание! Архив погоды МЕТАР в базе сайта хранится не более 60 дней. Нет смысла пытаться выбрать более раннюю дату.

Внимание! Время в таблицах - всемирное. Для получения местного времени необходимо прибавить поправку, которая в Дюранте равна -6 ч.

Ветер - указаны скорость ветра в м/с и направление, откуда дует ветер: С - северный, СВ - северо-восточный, В - восточный, ЮВ - юго-восточный, Ю - южный, ЮЗ - юго-западный, З - западный, СЗ - северо-западный.
Видимость - горизонтальная дальность видимости в метрах или километрах. При видимости от 1 до 10 км при отсутствии осадков обычно наблюдается дымка, при ухудшении видимости до 1 км и менее - туман. В сухую погоду видимость может ухудшаться дымом, пылью или мглою.
Атмосферные явления - указаны явления, наблюдавшиеся в указанный момент времени.
Облачность - указаны через наклонную черту верхняя и нижняя облачность в баллах и высота нижней границы облаков в метрах. Внимание: облачность, как и прочие метеорологические величины в США измеряются автоматическими метеостанциями. Указанные значения в баллах носят условный характер и показывают процент времени, в течение которого, в среднем, лазерный луч высотомера отражался от облаков обратно.
T - Температура воздуха - температура, измеренная на высоте 2 м над землей.
Td - Температура точки росы - температура, при понижении до которой содержащийся в воздухе водяной пар достигнет насыщения.
f - Относительная влажность воздуха - влажноcть воздуха, измеренная на высоте 2 м над землей.
Te - Эффективная температура - температура, которую ощущает одетый по сезону человек в тени. Характеристика душности погоды. При расчете учитывается влияние влажности воздуха и скорости ветра на теплоощущения человека.
Tes - Эффективная температура на солнце - температура, которую ощущает человек, с поправкой на солнечный нагрев. Характеристика знойности погоды. Зависит от высоты солнца над горизонтом, облачности и скорости ветра. Ночью, в пасмурную погоду, а также при ветре 12 м/с и более поправка равна нулю.
P - Атмосферное давление - приведенное к уровню моря атмосферное давление.
Po - Атмосферное давление - измеренное на уровне метеостанции атмосферное давление.
Tmin - Минимальная температура - минимум температуры воздуха на высоте 2 м над землей.
Tmax - Максимальная температура - максимум температуры воздуха на высоте 2 м над землей.
R - Количество осадков - Количество выпавших осадков за 3 или 6 часов, мм.
SD - Снежный покров - Высота снежного покрова, см.